[[{"header":{"parameterUnit":"m.s-1","parameterCategory":1,"la1":30.2991,"la2":30.254,"lo1":-89.0895,"lo2":-89.0444,"dy":0.0017,"dx":0.0017,"nx":28,"ny":28,"refTime":"2024-03-17T03:00:00:Z","depth":0,"parameterNumber":2,"parameterNumberName":"U-component_of_WINDS"},"data":[0,0,0,0,0,0,0,0,0,0,0,0,0,0,0,0,0,0,0,0,0,0,0,0,0,0,0,0,0,0,0,0,0,0,0,0,0,0,0,0,0,0,0,0,0,0,0,0,0,0,0,0,0,0,0,0,0,0,2.7094,2.7095,0,2.7166,2.7167,2.7167,2.7159,2.7158,2.7157,2.7156,2.7229,2.7232,2.7235,0,0,0,0,0,0,0,0,0,0,0,0,0,2.6951,2.6953,2.7094,2.7095,2.7096,2.7166,2.7167,2.7168,2.7159,2.7158,2.7156,2.7155,2.7228,2.7232,2.7235,0,0,0,0,0,0,0,0,0,0,0,0,0,2.7017,2.6954,2.7094,2.71,2.7101,2.7165,2.7167,2.7168,2.7159,2.7158,2.7156,2.7154,2.7227,2.7231,2.7236,2.7298,0,0,2.725,2.7252,0,0,0,0,0,0,0,0,2.7013,2.7022,2.7098,2.71,2.7101,2.7152,2.7143,2.7212,2.716,2.7137,2.7156,2.7154,2.7205,2.7211,2.7228,2.7302,2.7305,2.725,2.7253,2.7255,2.7256,0,0,0,0,0,0,0,2.7008,2.7019,2.7122,2.7099,2.7101,2.71,2.7107,2.7156,2.718,2.7139,2.7139,2.7147,2.7205,2.7224,2.723,2.7306,2.725,2.7254,2.7257,2.7259,2.7436,2.7438,0,0,0,0,0,0,2.7002,2.7015,2.712,2.7124,2.7052,2.7104,2.7112,2.7137,2.7179,2.7184,2.7149,2.7147,2.7217,2.7225,2.7232,2.7309,2.7255,2.7259,2.7262,2.7434,2.7437,2.7439,0,0,0,0,0,0,2.6999,2.7012,2.7117,2.707,2.7083,2.7108,2.7136,2.7139,2.7158,2.7187,2.7191,2.7163,2.7216,2.7226,2.7282,2.7312,2.7261,2.7265,2.7432,2.7435,2.7438,2.7463,0,0,0,0,0,0,2.6995,2.7011,2.7034,2.707,2.7086,2.7165,2.7138,2.7142,2.7166,2.7164,2.7201,2.7206,2.7215,2.7276,2.7287,2.7317,2.7269,2.743,2.7433,2.7437,2.746,2.7466,2.7472,0,0,0,0,0,2.699,2.7038,2.7035,2.7048,2.7116,2.7167,2.7176,2.7186,2.7168,2.7193,2.7211,2.7205,2.7307,2.7282,2.7294,2.7326,2.7428,2.7432,2.7437,2.7457,2.7465,2.7472,0,0,0,0,0,0,2.7004,2.7043,2.704,2.7101,2.7131,2.7166,2.7196,2.7194,2.7229,2.7226,2.7237,2.7245,2.7303,2.732,2.7291,2.739,2.7365,2.7372,2.7376,2.7384,2.739,2.7385,2.7273,0,0,0,0,0,2.7015,2.7053,2.7085,2.7136,2.7151,2.7171,2.7194,2.7199,2.723,2.7243,2.7265,2.7296,2.7335,2.7361,2.7398,2.7463,2.7471,2.7491,2.7497,2.7502,2.7508,2.7545,2.7554,2.7454,2.7454,2.7454,0,0,2.7036,2.7062,2.7085,2.7139,2.7163,2.7203,2.7182,2.7224,2.7255,2.7249,2.7304,2.7322,2.7357,2.7418,2.7446,2.7434,2.7538,2.7508,2.7512,2.7515,2.755,2.756,2.7568,2.7457,2.7456,2.7456,0,0,2.7095,2.7119,2.7164,2.7189,2.7225,2.7239,2.725,2.7285,2.7297,2.7352,2.735,2.7386,2.7453,2.7478,2.75,2.7572,2.7567,2.7584,2.7616,2.7652,2.766,2.7667,2.7693,2.7702,2.759,2.759,2.759,0,2.7117,2.7177,2.7188,2.7232,2.7256,2.7254,2.73,2.7324,2.737,2.7387,2.7374,2.7459,2.7482,2.755,2.7567,2.7585,2.7598,2.7579,2.7658,2.7665,2.7672,2.7696,2.7706,2.7591,2.7591,2.7591,2.7591,0,2.7203,2.7245,2.7277,2.7323,2.7351,2.7396,2.7414,2.7441,2.7444,2.746,2.7517,2.7545,2.7589,2.7606,2.7609,2.7674,2.7666,2.7655,2.763,2.7683,2.7706,2.7716,2.7594,2.7593,2.7593,2.7592,0,0,2.7272,2.7324,2.7336,2.7357,2.7398,2.7431,2.7476,2.7519,2.7543,2.7576,2.7615,2.7672,2.7663,2.7688,2.7695,2.7726,2.7782,2.7711,2.7712,2.7724,2.7856,2.7864,2.7874,2.778,2.7781,2.7783,2.7853,0,2.7335,2.7415,2.7427,2.7498,2.7537,2.7537,2.7577,2.7607,2.7623,2.7659,2.7677,2.7718,2.7702,2.7717,2.7748,2.7768,2.7808,2.7763,2.7816,2.7818,2.7807,2.7887,2.7895,2.7959,2.7862,2.7864,2.7865,0,2.742,2.7455,2.753,2.7567,2.7584,2.762,2.7661,2.7696,2.773,2.774,2.7769,2.7772,2.782,2.7794,2.7861,2.783,2.7853,2.7866,2.7869,2.7874,2.7844,2.7894,2.798,2.799,2.788,2.7878,2.7877,0,2.7463,2.753,2.7583,2.7602,2.7646,2.7671,2.7691,2.7724,2.775,2.7786,2.7803,2.7845,2.7867,2.79,2.7915,2.7895,2.7981,2.7956,2.7991,2.7991,2.8008,2.8007,2.8099,2.8024,2.8023,2.8023,2.8023,0,2.7532,2.7578,2.7603,2.7636,2.7688,2.7702,2.7753,2.7772,2.7802,2.7839,2.7842,2.7877,2.7895,2.7933,2.7945,2.7999,2.8009,2.8019,2.8021,2.8018,2.8017,2.8033,2.8029,2.8026,2.8025,2.8025,2.8024,0,2.7588,2.7607,2.7666,2.7704,2.7714,2.7751,2.7784,2.7816,2.7833,2.788,2.7892,2.7918,2.7963,2.7982,2.8037,2.8045,2.8107,2.8107,2.8096,2.8096,2.813,2.8127,2.8235,2.8251,2.8165,2.8166,2.8166,0,2.7631,2.7666,2.7708,2.7734,2.7754,2.7795,2.7821,2.7837,2.7865,2.7908,2.7935,2.7981,2.8018,2.809,2.8114,2.8157,2.8157,2.8192,2.8163,2.816,2.8158,2.8155,2.8159,2.8197,2.8198,2.8199,2.82,0,2.7705,2.7713,2.7751,2.7793,2.7825,2.7859,2.7892,2.7912,2.7933,2.7965,2.8011,2.804,2.8097,2.8142,2.8186,2.8207,2.8207,2.8209,2.8219,2.8216,2.8208,2.8213,2.811,2.8206,2.8205,2.8205,2.8204,2.8204,2.7756,2.7787,2.7822,2.7865,2.7892,2.7923,2.7956,2.7977,2.8016,2.8064,2.8071,2.8121,2.8156,2.8216,2.8239,2.8279,2.827,2.8285,2.8288,2.8292,2.8294,2.8202,2.8287,2.8287,2.8287,2.8287,2.8287,0,2.783,2.7853,2.7892,2.7938,2.7973,2.797,2.8007,2.8036,2.808,2.8113,2.8149,2.8204,2.8248,2.8276,2.8321,2.8348,2.8349,2.8359,2.8357,2.8362,2.8299,2.8286,2.8357,2.8357,2.8357,2.8357,2.8357,2.8357,2.7872,2.7926,2.7939,2.8007,2.803,2.8079,2.81,2.8129,2.8156,2.8216,2.8253,2.8272,2.8303,2.8351,2.8392,2.8399,2.8416,2.8426,2.8433,2.8374,2.8366,2.8359,2.8347,2.843,2.843,2.8492,2.8493,2.8493]},{"header":{"parameterUnit":"m.s-1","parameterCategory":1,"la1":30.2991,"la2":30.254,"lo1":-89.0895,"lo2":-89.0444,"dy":0.0017,"dx":0.0017,"nx":28,"ny":28,"refTime":"2024-03-17T03:00:00:Z","depth":0,"parameterNumber":3,"parameterNumberName":"V-component_of_WINDS"},"data":[0,0,0,0,0,0,0,0,0,0,0,0,0,0,0,0,0,0,0,0,0,0,0,0,0,0,0,0,0,0,0,0,0,0,0,0,0,0,0,0,0,0,0,0,0,0,0,0,0,0,0,0,0,0,0,0,0,0,-7.459,-7.4591,0,-7.475,-7.4752,-7.4753,-7.4691,-7.4688,-7.4684,-7.4681,-7.4841,-7.4849,-7.4856,0,0,0,0,0,0,0,0,0,0,0,0,0,-7.4227,-7.4234,-7.4589,-7.4591,-7.4593,-7.4749,-7.4752,-7.4754,-7.4692,-7.4688,-7.4683,-7.4679,-7.4839,-7.4848,-7.4857,0,0,0,0,0,0,0,0,0,0,0,0,0,-7.4386,-7.4237,-7.4589,-7.4582,-7.4582,-7.4749,-7.4752,-7.4754,-7.4693,-7.4687,-7.4682,-7.4677,-7.4836,-7.4847,-7.4858,-7.5041,0,0,-7.4894,-7.4899,0,0,0,0,0,0,0,0,-7.4377,-7.4399,-7.4581,-7.4582,-7.4584,-7.4695,-7.4683,-7.485,-7.4694,-7.4651,-7.468,-7.4674,-7.4797,-7.4811,-7.4853,-7.5048,-7.5055,-7.4895,-7.4902,-7.4907,-7.491,0,0,0,0,0,0,0,-7.4366,-7.4392,-7.4653,-7.4583,-7.4585,-7.4569,-7.4586,-7.4714,-7.4753,-7.4654,-7.465,-7.467,-7.4797,-7.4842,-7.4857,-7.5058,-7.4895,-7.4905,-7.4912,-7.4917,-7.5411,-7.5417,0,0,0,0,0,0,-7.4355,-7.4383,-7.4648,-7.4657,-7.4465,-7.458,-7.4599,-7.4665,-7.4751,-7.4759,-7.4675,-7.4667,-7.4825,-7.4843,-7.4862,-7.5082,-7.4907,-7.4918,-7.4924,-7.5405,-7.5412,-7.5419,0,0,0,0,0,0,-7.4347,-7.4379,-7.4641,-7.4519,-7.4552,-7.4592,-7.4667,-7.4671,-7.4717,-7.4767,-7.4773,-7.4715,-7.4822,-7.4846,-7.4997,-7.5087,-7.4923,-7.4933,-7.5397,-7.5407,-7.5415,-7.5523,0,0,0,0,0,0,-7.4337,-7.4377,-7.4447,-7.4521,-7.4558,-7.4775,-7.4673,-7.4678,-7.4737,-7.4728,-7.4806,-7.4814,-7.4819,-7.498,-7.5009,-7.51,-7.4942,-7.5389,-7.5402,-7.5412,-7.5512,-7.5535,-7.5555,0,0,0,0,0,-7.4325,-7.447,-7.4451,-7.4483,-7.4647,-7.478,-7.4801,-7.4806,-7.4745,-7.4816,-7.4848,-7.4811,-7.5072,-7.4996,-7.5028,-7.5124,-7.5384,-7.5398,-7.5412,-7.5502,-7.553,-7.5554,0,0,0,0,0,0,-7.4404,-7.448,-7.4459,-7.4634,-7.4701,-7.477,-7.4859,-7.4835,-7.4921,-7.4908,-7.4909,-7.4927,-7.5084,-7.5118,-7.5033,-7.5305,-7.5219,-7.524,-7.5277,-7.5304,-7.5325,-7.5314,-7.4952,0,0,0,0,0,-7.4442,-7.4545,-7.4605,-7.4753,-7.4788,-7.4818,-7.4876,-7.4874,-7.4943,-7.4971,-7.5014,-7.5082,-7.5179,-7.5243,-7.5336,-7.5516,-7.5532,-7.5598,-7.5619,-7.5636,-7.5655,-7.5753,-7.5783,-7.5464,-7.5464,-7.5464,0,0,-7.4522,-7.4576,-7.464,-7.477,-7.4822,-7.4928,-7.4842,-7.4957,-7.5035,-7.4988,-7.5134,-7.5168,-7.5244,-7.5411,-7.5487,-7.5445,-7.5746,-7.5654,-7.5668,-7.5676,-7.577,-7.58,-7.5827,-7.5474,-7.5472,-7.5471,0,0,-7.4721,-7.4772,-7.4901,-7.4955,-7.5035,-7.5054,-7.5086,-7.5158,-7.5179,-7.5326,-7.5293,-7.5385,-7.5553,-7.5608,-7.5658,-7.5879,-7.5848,-7.5909,-7.6021,-7.6117,-7.6142,-7.6164,-7.6243,-7.6272,-7.5926,-7.5927,-7.5927,0,-7.4809,-7.4968,-7.497,-7.5089,-7.5147,-7.511,-7.5241,-7.5292,-7.5398,-7.5439,-7.5391,-7.5601,-7.5649,-7.5829,-7.5883,-7.5925,-7.596,-7.59,-7.6138,-7.6161,-7.6182,-7.6257,-7.6287,-7.5934,-7.5933,-7.5932,-7.5932,0,-7.5072,-7.5183,-7.5277,-7.5382,-7.5451,-7.5575,-7.5596,-7.5665,-7.5656,-7.568,-7.583,-7.5887,-7.599,-7.6033,-7.6025,-7.6212,-7.6183,-7.6137,-7.6051,-7.6219,-7.629,-7.6318,-7.5944,-7.5941,-7.5939,-7.5937,0,0,-7.5326,-7.5431,-7.5466,-7.5513,-7.5599,-7.5684,-7.5806,-7.5909,-7.5968,-7.6042,-7.6144,-7.6287,-7.6245,-7.6302,-7.63,-7.6385,-7.6556,-7.6328,-7.633,-7.6369,-7.6765,-7.68,-7.6834,-7.6536,-7.6542,-7.6546,-7.6759,0,-7.5532,-7.5748,-7.5754,-7.595,-7.6053,-7.6019,-7.6125,-7.6189,-7.6215,-7.6304,-7.6331,-7.6433,-7.637,-7.6404,-7.6486,-7.6518,-7.6636,-7.6503,-7.6631,-7.6635,-7.6614,-7.6871,-7.6908,-7.7106,-7.6787,-7.6791,-7.6795,0,-7.5801,-7.5886,-7.6093,-7.6165,-7.6208,-7.6304,-7.6398,-7.6484,-7.6556,-7.6568,-7.6633,-7.6619,-7.6742,-7.6652,-7.6822,-7.6731,-7.6783,-7.6807,-7.6815,-7.6827,-7.6726,-7.689,-7.7169,-7.7199,-7.6838,-7.6835,-7.6832,0,-7.5967,-7.6132,-7.6277,-7.6318,-7.6406,-7.6474,-7.6513,-7.6579,-7.664,-7.6722,-7.6762,-7.6857,-7.6909,-7.6983,-7.6994,-7.6927,-7.7165,-7.7075,-7.7179,-7.7179,-7.7231,-7.7228,-7.7523,-7.7264,-7.7264,-7.7263,-7.7263,0,-7.6196,-7.6325,-7.6353,-7.6442,-7.6585,-7.659,-7.6731,-7.6765,-7.6824,-7.6919,-7.6895,-7.6984,-7.6994,-7.7086,-7.7096,-7.7235,-7.7259,-7.7272,-7.7273,-7.7275,-7.7273,-7.7309,-7.7296,-7.7271,-7.7269,-7.7268,-7.7266,0,-7.6405,-7.6429,-7.6586,-7.6656,-7.6676,-7.6778,-7.6838,-7.6923,-7.6946,-7.7067,-7.7095,-7.7131,-7.7239,-7.7257,-7.7383,-7.7389,-7.7557,-7.7543,-7.7533,-7.7532,-7.7634,-7.7625,-7.7964,-7.8008,-7.772,-7.7723,-7.7725,0,-7.655,-7.6649,-7.673,-7.6792,-7.6835,-7.6936,-7.6999,-7.7007,-7.7074,-7.7163,-7.7237,-7.7342,-7.7427,-7.7599,-7.7636,-7.7732,-7.7721,-7.7833,-7.7735,-7.7734,-7.7723,-7.7718,-7.7727,-7.7852,-7.7855,-7.7858,-7.786,0,-7.6806,-7.6813,-7.6905,-7.7002,-7.7078,-7.7154,-7.7226,-7.7279,-7.7297,-7.7372,-7.7482,-7.7548,-7.7677,-7.7781,-7.7877,-7.7916,-7.7892,-7.7891,-7.792,-7.7922,-7.7913,-7.792,-7.7585,-7.7883,-7.788,-7.7879,-7.7878,-7.7877,-7.6988,-7.7074,-7.7145,-7.7248,-7.7303,-7.7372,-7.7456,-7.749,-7.7582,-7.7689,-7.7688,-7.7808,-7.7877,-7.8003,-7.8049,-7.8142,-7.8106,-7.8148,-7.8159,-7.8169,-7.8179,-7.7898,-7.8159,-7.8159,-7.8158,-7.8158,-7.8157,0,-7.7243,-7.7287,-7.7382,-7.7484,-7.7566,-7.7536,-7.7615,-7.7684,-7.7791,-7.7858,-7.7942,-7.8068,-7.8169,-7.8214,-7.8314,-7.838,-7.8371,-7.8406,-7.8401,-7.8411,-7.8206,-7.8171,-7.8411,-7.8411,-7.8411,-7.8411,-7.8411,-7.8411,-7.7385,-7.7529,-7.7545,-7.7716,-7.7758,-7.7877,-7.7925,-7.7987,-7.8041,-7.8183,-7.8268,-7.8297,-7.8355,-7.8458,-7.8549,-7.856,-7.8598,-7.8638,-7.8643,-7.8451,-7.8425,-7.8401,-7.8368,-7.8646,-7.8646,-7.884,-7.8842,-7.8843]}]]